This is the latest recevied weather packets stored in our database for station/object JR5VPD-10. If no packets are shown the sender has not sent any weather packets the latest 10 day(s).
| Time | Temp. | Humidity | Pressure | Rain* | Wind** | Luminosity | Snow |
|---|---|---|---|---|---|---|---|
| 1787686572 | 28.89° C | 90% | 1007.9 hPa | 0 mm | 0 m/s | - | - |
| 1787684772 | 28.89° C | 89% | 1008.1 hPa | 0 mm | 0 m/s | - | - |
| 1787682972 | 28.89° C | 92% | 1008.1 hPa | 0 mm | 0 m/s | - | - |
| 1787681172 | 28.89° C | 89% | 1007.9 hPa | 0 mm | 0 m/s | - | - |
| 1787679372 | 28.89° C | 87% | 1008 hPa | 0 mm | 0 m/s | - | - |
| 1787677572 | 30° C | 85% | 1008.1 hPa | 0 mm | 0 m/s | - | - |
| 1787675772 | 30° C | 85% | 1008.3 hPa | 0 mm | 0 m/s | - | - |
| 1787673972 | 30° C | 82% | 1008.6 hPa | 0 mm | 0 m/s | - | - |
| 1787672172 | 30° C | 80% | 1009.1 hPa | 0 mm | 0 m/s | - | - |
| 1787670372 | 30° C | 79% | 1009.1 hPa | 0 mm | 0 m/s | - | - |
| 1787668572 | 30° C | 80% | 1009.3 hPa | 0 mm | 0 m/s | - | - |
| 1787666772 | 30° C | 79% | 1008.9 hPa | 0 mm | 0 m/s | - | - |
| 1787664972 | 30° C | 82% | 1008.9 hPa | 0 mm | 0 m/s | - | - |
| 1787663172 | 30.56° C | 79% | 1008.5 hPa | 0 mm | 0 m/s | - | - |
| 1787661372 | 30.56° C | 72% | 1008.6 hPa | 0 mm | 0 m/s | - | - |
| 1787659572 | 30.56° C | 69% | 1008.6 hPa | 0 mm | 0 m/s | - | - |
| 1787657772 | 30.56° C | 70% | 1008.6 hPa | 0 mm | 0 m/s | - | - |
| 1787655972 | 30.56° C | 72% | 1008.5 hPa | 0 mm | 0 m/s | - | - |
| 1787654172 | 31.67° C | 71% | 1008.1 hPa | 0 mm | 0 m/s | - | - |
| 1787652372 | 30.56° C | 74% | 1007.7 hPa | 0 mm | 0 m/s | - | - |
| 1787650572 | 31.67° C | 74% | 1007.7 hPa | 0 mm | 0 m/s | - | - |
| 1787648772 | 31.67° C | 71% | 1007.5 hPa | 0 mm | 0 m/s | - | - |
| 1787646972 | 31.67° C | 67% | 1007.6 hPa | 0 mm | 0 m/s | - | - |
| 1787645172 | 31.67° C | 67% | 1007.9 hPa | 0 mm | 0 m/s | - | - |
| 1787643372 | 31.67° C | 63% | 1008 hPa | 0 mm | 0 m/s | - | - |
* Rain latest hour (hover to see other rain measurements)
** Current wind speed in m/s (hover to see current wind gust speed)